Weather Roundup
Issued by NWS Chicago, IL

Home | Current Version | Previous Version | Text Only | Print | Product List | Glossary Off
Versions: 1 2 3 4 5 6 7 8 9 10 11 12 13 14 15 16 17 18 19 20 21 22 23 24 25 26 27 28 29 30 31 32 33 34 35 36 37 38 39 40 41 42 43 44 45 46 47 48 49 50

000
NZUS59 KLOT 051712
HRRLOT

CHICAGO AREA WEATHER ROUNDUP
NATIONAL WEATHER SERVICE CHICAGO/ROMEOVILLE IL
1200 PM CDT TUE MAY 05 2015

NOTE: "FAIR" INDICATES FEW OR NO CLOUDS BELOW 12,000 FEET WITH NO
SIGNIFICANT WEATHER AND/OR OBSTRUCTIONS TO VISIBILITY.

* THESE STATIONS ARE NOT UNDER NWS QUALITY CONTROL. THEY ALSO MAY NOT
  REPORT WEATHER SUCH AS PRECIPITATION OR FOG.

ILZ005-006-012>014-019>023-051800-
NORTHEAST ILLINOIS

CITY           SKY/WX    TMP DP  RH WIND       PRES   REMARKS
OHARE          FOG       50  49  96 N10       30.24S VSB 1/2
MIDWAY         CLOUDY    59  53  80 N7        30.23S HAZE
AURORA         CLOUDY    58  54  86 NE9       30.22S FOG
LANSING*       CLOUDY    55  53  94 N3        30.23R FOG
JOLIET*        CLOUDY    61  58  92 NE5       30.21F FOG
WAUKEGAN       LGT RAIN  47  45  93 NE9       30.26S FOG
DUPAGE AIRPORT FOG       53  52  96 NE10      30.23S VSB 1
WHEELING       CLOUDY    49  47  93 N9        30.27S FOG
KANKAKEE*      CLOUDY    68  64  88 NE7       30.20S
MORRIS*        CLOUDY    61  59  92 NE6       30.18F FOG
LEWIS AIRPORT* CLOUDY    57  55  94 NE7       30.22F FOG
NORTHERLY IS     N/A     49  48  97 N8          N/A
$$

WIZ051-052-058>065-066-070>072-051800-
SOUTHEAST WISCONSIN

CITY           SKY/WX    TMP DP  RH WIND       PRES   REMARKS
MILWAUKEE      LGT RAIN  47  44  90 NE10      30.31S FOG
KENOSHA*       LGT RAIN  48  46  93 E10       30.28S
RACINE*        LGT RAIN  48  45  89 NE12      30.31R FOG
BURLINGTON     LGT RAIN  48  47  95 E10       30.28S
WAUKESHA       LGT RAIN  48  46  93 E12       30.31R
WEST BEND      CLOUDY    50  45  81 E9        30.32S
$$

INZ001>003-010>013-019-020-051800-
NORTHWEST INDIANA

CITY           SKY/WX    TMP DP  RH WIND       PRES   REMARKS
GARY*          LGT RAIN  55 N/A N/A CALM      30.23S
MICHIGAN CITY* NOT AVBL
RENSSELAER*    NOT AVBL
VALPARAISO     LGT RAIN  68  62  81 CALM      30.23R
$$

LMZ740>746-051800-
SOUTHERN LAKE MICHIGAN

STATION/POSITION TIME  SKY/WX   TEMP WIND        PRES    VSBY
                                AIR  DIR/SP/G
                 (UTC)          (F)  (DEG/KT/KT) (MB)    (MI)
HARRISON CRIB    1600            46  330/  3/  4   N/A
BURNHAM HARBOR   1700            50  350/  8/  8   N/A
CALUMET HARBOR   1600            49  340/  6/  8   N/A
BURNS HARBOR     1600            54  180/  6/ 14 1023.7R
MICHIGAN CITY    1600            58  180/  5/  7   N/A
$$

ABBREVIATIONS USED IN REMARKS
   TC - TEMPERATURE IN CELSIUS
  WCI - WIND CHILL INDEX
   HX - HEAT INDEX
  VSB - VISIBILITY
$$



USA.gov is the U.S. government's official web portal to all federal, state and local government web resources and services.